RANA Weather Reports


Display with metric or nautical units.
time (UTC)temp
F
wind
direction
speed
MPH
gust
MPH
rain 1hr
in
rain 24hr
in
rain mn
in
humidity
%
barometer
mb
20260505152510 66 355 22.0 29.0 0.00 0.00 0.00 53
20260505152012 66 344 20.0 22.0 0.00 0.00 0.00 53
20260505151510 66 350 18.0 22.0 0.00 0.00 0.00 53
20260505151010 66 342 20.0 27.0 0.00 0.00 0.00 52
20260505150511 66 344 20.0 25.0 0.00 0.00 0.00 52
20260505140510 68 354 13.0 20.0 0.00 0.00 0.00 47
20260505125010 73 107 4.0 7.0 0.00 0.00 0.00 38
20260505124510 72 82 2.0 4.0 0.00 0.00 0.00 39
20260505124010 72 91 4.0 7.0 0.00 0.00 0.00 39
20260505123511 72 106 4.0 7.0 0.00 0.00 0.00 39
20260505123010 72 56 4.0 9.0 0.00 0.00 0.00 40
20260505122509 72 33 7.0 9.0 0.00 0.00 0.00 41
20260505122013 72 37 7.0 9.0 0.00 0.00 0.00 40
20260505121510 72 55 2.0 4.0 0.00 0.00 0.00 40
20260505121010 72 52 4.0 7.0 0.00 0.00 0.00 40
20260505120510 73 358 4.0 7.0 0.00 0.00 0.00 40
20260505120010 72 144 4.0 4.0 0.00 0.00 0.00 40
20260505115509 72 118 4.0 7.0 0.00 0.00 0.00 40
20260505115010 72 91 4.0 7.0 0.00 0.00 0.00 41
20260505114510 73 80 4.0 7.0 0.00 0.00 0.00 40
20260505114014 72 5 2.0 7.0 0.00 0.00 0.00 43
20260505113511 72 58 4.0 7.0 0.00 0.00 0.00 43
20260505113011 70 38 4.0 7.0 0.00 0.00 0.00 43
20260505112511 70 48 4.0 7.0 0.00 0.00 0.00 43
20260505112012 72 19 4.0 7.0 0.00 0.00 0.00 43
20260505111511 72 66 2.0 4.0 0.00 0.00 0.00 44
20260505111011 72 39 7.0 9.0 0.00 0.00 0.00 43
20260505110510 72 132 7.0 9.0 0.00 0.00 0.00 43
20260505101511 68 27 4.0 7.0 0.00 0.00 0.00 47
20260505101010 70 51 4.0 9.0 0.00 0.00 0.00 47
20260505100510 70 350 2.0 7.0 0.00 0.00 0.00 48
20260505100011 68 7 2.0 2.0 0.00 0.00 0.00 48
20260505095510 68 12 0.0 2.0 0.00 0.00 0.00 48
20260505095010 68 331 0.0 4.0 0.00 0.00 0.00 48
20260505094510 68 1 2.0 7.0 0.00 0.00 0.00 48
20260505094010 68 5 2.0 4.0 0.00 0.00 0.00 48
20260505093511 68 326 2.0 2.0 0.00 0.00 0.00 49
20260505093015 68 331 2.0 9.0 0.00 0.00 0.00 49
20260505092510 66 329 4.0 4.0 0.00 0.00 0.00 49
20260505092012 66 344 2.0 7.0 0.00 0.00 0.00 49
20260505091510 66 335 2.0 4.0 0.00 0.00 0.00 49
20260505091010 68 7 7.0 9.0 0.00 0.00 0.00 48
20260505090510 68 344 2.0 2.0 0.00 0.00 0.00 48
20260505090011 68 355 4.0 4.0 0.00 0.00 0.00 49
20260505085510 66 351 4.0 7.0 0.00 0.00 0.00 50
20260505085010 68 301 0.0 2.0 0.00 0.00 0.00 50
20260505084510 68 352 4.0 4.0 0.00 0.00 0.00 51
20260505084010 66 334 2.0 2.0 0.00 0.00 0.00 52
20260505083511 66 336 2.0 2.0 0.00 0.00 0.00 53
20260505083011 64 334 2.0 4.0 0.00 0.00 0.00 53
20260505082510 64 21 4.0 4.0 0.00 0.00 0.00 54
20260505082013 64 299 0.0 0.0 0.00 0.00 0.00 54
20260505081510 64 305 2.0 2.0 0.00 0.00 0.00 54
20260505081010 64 306 0.0 0.0 0.00 0.00 0.00 56
20260505080510 64 325 2.0 4.0 0.00 0.00 0.00 56
20260505080010 63 319 2.0 2.0 0.00 0.00 0.00 56
20260505075511 63 332 2.0 2.0 0.00 0.00 0.00 56
20260505075011 63 333 2.0 2.0 0.00 0.00 0.00 56
20260505074504 63 298 2.0 2.0 0.00 0.00 0.00 55
20260505074010 64 336 2.0 2.0 0.00 0.00 0.00 54
20260505073510 64 30 0.0 2.0 0.00 0.00 0.00 55
20260505073011 63 30 0.0 0.0 0.00 0.00 0.00 55
20260505072511 63 123 0.0 0.0 0.00 0.00 0.00 55
20260505072013 64 123 0.0 0.0 0.00 0.00 0.00 55
20260505071510 64 123 0.0 0.0 0.00 0.00 0.00 57
20260505071011 63 123 0.0 0.0 0.00 0.00 0.00 59
20260505070511 59 123 0.0 0.0 0.00 0.00 0.00 60
20260505070010 59 123 0.0 2.0 0.00 0.00 0.00 61
20260505065011 59 123 0.0 0.0 0.00 0.00 0.00 61
20260505064516 61 123 0.0 0.0 0.00 0.00 0.00 59
20260505064011 61 123 0.0 0.0 0.00 0.00 0.00 58
20260505063511 59 123 0.0 0.0 0.00 0.00 0.00 58
20260505063011 59 124 0.0 2.0 0.00 0.00 0.00 58
20260505062510 59 124 2.0 2.0 0.00 0.00 0.00 58
20260505062013 59 138 2.0 2.0 0.00 0.00 0.00 58
20260505061010 59 147 4.0 4.0 0.00 0.00 0.00 58
20260505060510 59 143 2.0 2.0 0.00 0.00 0.00 58
20260505055510 59 135 2.0 2.0 0.00 0.00 0.00 57
20260505055010 59 156 2.0 2.0 0.00 0.00 0.00 57
20260505054510 59 158 2.0 2.0 0.00 0.00 0.00 57
20260505054010 59 157 2.0 2.0 0.00 0.00 0.00 57
20260505053010 59 157 0.0 2.0 0.00 0.00 0.00 57
20260505051510 59 185 2.0 2.0 0.00 0.00 0.00 57
20260505051010 59 185 0.0 2.0 0.00 0.00 0.00 57
20260505050510 59 185 2.0 2.0 0.00 0.00 0.00 57
20260505041511 59 190 0.0 0.0 0.00 0.00 0.00 55
20260505041010 59 190 2.0 2.0 0.00 0.00 0.00 54
20260505035010 61 79 0.0 0.0 0.00 0.00 0.00 54
20260505034509 61 79 0.0 2.0 0.00 0.00 0.00 54
20260505034010 61 236 0.0 2.0 0.00 0.00 0.00 54
20260505033511 59 236 0.0 0.0 0.00 0.00 0.00 54
20260505032510 61 16 2.0 2.0 0.00 0.00 0.00 54
20260505032011 61 16 0.0 2.0 0.00 0.00 0.00 54
20260505031511 61 15 2.0 2.0 0.00 0.00 0.00 54
20260505031010 61 105 0.0 2.0 0.00 0.00 0.00 55
20260505030010 59 105 0.0 0.0 0.00 0.00 0.00 55
20260505025509 61 88 2.0 2.0 0.00 0.00 0.00 54
20260505025011 61 93 4.0 4.0 0.00 0.00 0.00 54
20260505024510 61 87 4.0 4.0 0.00 0.00 0.00 54
20260505024010 61 73 7.0 7.0 0.00 0.00 0.00 54
20260505023510 61 63 7.0 9.0 0.00 0.00 0.00 54
20260505023011 61 54 9.0 9.0 0.00 0.00 0.00 54
20260505022509 61 50 9.0 9.0 0.00 0.00 0.00 54
20260505022012 61 45 7.0 9.0 0.00 0.00 0.00 55
20260505021510 61 42 7.0 9.0 0.00 0.00 0.00 56
20260505021011 61 24 7.0 9.0 0.00 0.00 0.00 56
20260505020510 59 13 7.0 9.0 0.00 0.00 0.00 57
20260505020013 59 4 9.0 11.0 0.00 0.00 0.00 58
20260505015510 59 1 11.0 11.0 0.00 0.00 0.00 58
20260505015011 59 4 9.0 11.0 0.00 0.00 0.00 58
20260505014510 59 10 11.0 11.0 0.00 0.00 0.00 58
20260505014010 59 347 9.0 11.0 0.00 0.00 0.00 58
20260505013509 59 341 9.0 9.0 0.00 0.00 0.00 58
20260505013010 59 337 7.0 9.0 0.00 0.00 0.00 58
20260505012511 59 319 4.0 7.0 0.00 0.00 0.00 58
20260505012014 59 338 9.0 9.0 0.00 0.00 0.00 59
20260505011511 59 340 9.0 9.0 0.00 0.00 0.00 59
20260505011010 59 353 9.0 9.0 0.00 0.00 0.00 58
20260505010510 59 8 9.0 11.0 0.00 0.00 0.00 58
20260505010010 59 1 9.0 9.0 0.00 0.00 0.00 59
20260505005511 59 1 9.0 11.0 0.00 0.00 0.00 59
20260505005011 59 39 9.0 11.0 0.00 0.00 0.00 59
20260505004511 59 24 7.0 9.0 0.00 0.00 0.00 58
20260505004010 59 6 7.0 9.0 0.00 0.00 0.00 58
20260505003510 59 22 4.0 7.0 0.00 0.00 0.00 57
20260505003010 59 40 7.0 7.0 0.00 0.00 0.00 57
20260505002510 59 37 4.0 7.0 0.00 0.00 0.00 58
20260505002018 59 52 7.0 9.0 0.00 0.00 0.00 58
20260505001511 59 47 4.0 7.0 0.00 0.00 0.00 59
20260505001011 59 77 9.0 11.0 0.00 0.00 0.00 59
20260505000511 59 80 9.0 9.0 0.00 0.00 0.00 59
20260505000011 59 79 7.0 9.0 0.00 0.00 0.00 59
20260504235510 59 92 9.0 11.0 0.00 0.00 0.00 59
20260504235017 59 100 11.0 11.0 0.00 0.00 0.00 59
20260504234510 59 107 9.0 11.0 0.00 0.00 0.00 59
20260504234009 59 114 11.0 11.0 0.00 0.00 0.00 60
20260504233511 59 116 11.0 11.0 0.00 0.00 0.00 59
20260504233010 59 116 11.0 11.0 0.00 0.00 0.00 58
20260504232510 59 107 9.0 9.0 0.00 0.00 0.00 57
20260504232013 59 110 9.0 11.0 0.00 0.00 0.00 57
20260504231517 59 115 9.0 11.0 0.00 0.00 0.00 57
20260504231010 59 120 9.0 9.0 0.00 0.00 0.00 54
20260504230510 61 121 7.0 9.0 0.00 0.00 0.00 52
20260504230010 61 118 4.0 4.0 0.00 0.00 0.00 51
20260504225510 63 72 9.0 11.0 0.00 0.00 0.00 50
20260504225010 63 54 7.0 9.0 0.00 0.00 0.00 50
20260504224511 63 30 9.0 9.0 0.00 0.00 0.00 51
20260504224010 63 40 7.0 9.0 0.00 0.00 0.00 51
20260504223515 63 51 7.0 7.0 0.00 0.00 0.00 51
20260504223010 63 60 7.0 9.0 0.00 0.00 0.00 52
20260504222509 63 75 4.0 7.0 0.00 0.00 0.00 52
20260504222013 63 84 7.0 7.0 0.00 0.00 0.00 51
20260504221511 63 69 4.0 7.0 0.00 0.00 0.00 51
20260504221010 63 48 4.0 7.0 0.00 0.00 0.00 51
20260504220511 63 49 7.0 7.0 0.00 0.00 0.00 51
20260504220011 63 53 7.0 7.0 0.00 0.00 0.00 51
20260504215510 63 44 7.0 7.0 0.00 0.00 0.00 51
20260504215011 63 57 7.0 7.0 0.00 0.00 0.00 51
20260504214510 63 53 7.0 7.0 0.00 0.00 0.00 51
20260504214010 63 47 7.0 9.0 0.00 0.00 0.00 50
20260504213510 63 32 9.0 9.0 0.00 0.00 0.00 51
20260504213011 63 25 7.0 9.0 0.00 0.00 0.00 51
20260504212511 63 15 7.0 7.0 0.00 0.00 0.00 51
20260504212012 63 18 7.0 7.0 0.00 0.00 0.00 51
20260504211510 63 27 7.0 7.0 0.00 0.00 0.00 51
20260504211010 63 46 7.0 9.0 0.00 0.00 0.00 51
20260504210511 63 47 4.0 4.0 0.00 0.00 0.00 51
20260504210011 63 50 4.0 7.0 0.00 0.00 0.00 51
20260504205510 63 56 7.0 7.0 0.00 0.00 0.00 51
20260504205010 63 66 4.0 4.0 0.00 0.00 0.00 51
20260504204510 63 48 7.0 7.0 0.00 0.00 0.00 50
20260504204010 63 42 9.0 9.0 0.00 0.00 0.00 50
20260504203510 64 29 9.0 9.0 0.00 0.00 0.00 49
20260504203011 64 30 9.0 11.0 0.00 0.00 0.00 49
20260504202510 64 28 9.0 11.0 0.00 0.00 0.00 50
20260504202012 64 21 9.0 11.0 0.00 0.00 0.00 50
20260504201511 64 19 9.0 9.0 0.00 0.00 0.00 50
20260504201010 64 17 9.0 9.0 0.00 0.00 0.00 50
20260504200511 64 26 9.0 11.0 0.00 0.00 0.00 50
20260504200010 63 26 11.0 13.0 0.00 0.00 0.00 50
20260504195511 63 23 11.0 11.0 0.00 0.00 0.00 50
20260504195011 63 24 11.0 13.0 0.00 0.00 0.00 50
20260504194511 63 19 11.0 13.0 0.00 0.00 0.00 50
20260504194011 64 25 11.0 13.0 0.00 0.00 0.00 50
20260504193511 64 32 13.0 13.0 0.00 0.00 0.00 49
20260504193010 64 34 13.0 13.0 0.00 0.00 0.00 49
20260504192510 64 31 13.0 13.0 0.00 0.00 0.00 49
20260504192014 64 27 13.0 13.0 0.00 0.00 0.00 49
20260504191510 64 28 13.0 13.0 0.00 0.00 0.00 48
20260504191010 64 26 11.0 13.0 0.00 0.00 0.00 48
20260504190510 64 25 11.0 11.0 0.00 0.00 0.00 47
20260504190011 64 28 11.0 13.0 0.00 0.00 0.00 46
20260504185510 64 41 9.0 9.0 0.00 0.00 0.00 45
20260504185011 64 33 9.0 11.0 0.00 0.00 0.00 44
20260504184511 66 36 4.0 7.0 0.00 0.00 0.00 43
20260504184010 66 71 7.0 7.0 0.00 0.00 0.00 42
20260504183510 66 80 7.0 9.0 0.00 0.00 0.00 42
20260504183010 66 86 9.0 9.0 0.00 0.00 0.00 42
20260504182510 66 82 9.0 9.0 0.00 0.00 0.00 43
20260504182015 66 67 9.0 11.0 0.00 0.00 0.00 43
20260504181510 66 34 7.0 9.0 0.00 0.00 0.00 44
20260504181011 66 31 7.0 7.0 0.00 0.00 0.00 44
20260504180515 66 26 9.0 9.0 0.00 0.00 0.00 44
20260504180011 66 55 2.0 4.0 0.00 0.00 0.00 42
20260504175510 66 100 9.0 11.0 0.00 0.00 0.00 42
20260504175010 66 101 9.0 11.0 0.00 0.00 0.00 42
20260504174511 66 98 9.0 9.0 0.00 0.00 0.00 42
20260504174010 66 98 9.0 11.0 0.00 0.00 0.00 42
20260504173511 66 97 9.0 11.0 0.00 0.00 0.00 43
20260504173010 66 102 9.0 9.0 0.00 0.00 0.00 43
20260504172511 68 104 9.0 11.0 0.00 0.00 0.00 43
20260504172015 68 102 9.0 11.0 0.00 0.00 0.00 42
20260504171511 68 104 9.0 9.0 0.00 0.00 0.00 42
20260504171010 68 103 9.0 9.0 0.00 0.00 0.00 41
20260504170511 68 99 7.0 9.0 0.00 0.00 0.00 40